User: anonymous   Login
Location: Unspecified
(0.0000°N, 0.0000°E)
Time: 12:39:14
(UTC+02:00)
Language:

ATLAS 2AS CENTAUR R/B - Orbit

View from above orbital plane
View from above orbital plane
View from above satellite
View from above satellite

Ground track
Ground track

The orbit data is extracted from the following two-line orbital elements,

1 28096U 03054B   17078.81404167 0.00000060  00000-0  88713-4 0    01
2 28096  63.6705 283.6944 0262715 265.3080  94.6920 13.40822116    05
Epoch (UTC): 19 March 2017 19:32:13
Eccentricity: 0.0262715
inclination: 63.6705°
perigee height: 909 km
apogee height: 1303 km
right ascension of ascending node: 283.6944°
argument of perigee: 265.3080°
revolutions per day: 13.40822116
mean anomaly at epoch: 94.6920°
orbit number at epoch: 0

The dashed part of the orbit path shows where the satellite is in the earth's shadow,  

DLR